Flag for U.S.A. Weather past 2 weeks in Trenton, New Jersey, U.S.A.

Now
59 °F

Overcast.


Feels Like: 59 °F
Forecast: 52 / 72 °F
Wind: No wind

Location: Mercer County Airport

Current Time: Sep 17, 2014 at 12:00:59 AM

Latest Report: Sep 16, 2014 at 10:53 PM


Visibility: 10 mi

Pressure: 30.01 "Hg

Humidity: 75%

Dew point: 51 °F

Location of TrentonLocation

Historic Weather in Trenton — Graph

°F

Trenton temperature yesterday

Maximum temperature yesterday: 73 °F (at 2:53 PM)
Minimum temperature yesterday: 55 °F (at 4:53 AM)
Average temperature yesterday: 62 °F

Past Weeks' High & Low Weather Summary

 TemperatureHumidityPressure
High91 °F (Sep 6, 1:53 PM)100% (Sep 2, 7:03 AM)30.28 "Hg (Sep 2, 7:03 AM)
Low48 °F (Sep 15, 3:53 AM)38% (Sep 15, 5:53 PM)29.80 "Hg (Sep 2, 6:53 PM)
Average70 °F71%30.06 "Hg
* Reported Sep 1 10:53 PM — Sep 16 10:53 PM, Trenton, Weather by CustomWeather, © 2014

Note: Actual official high and low records may vary slightly from our data, if they occured in-between our weather recording intervals... More about our weather records

Advertising

Trenton weather history for previous 24 hours

 ConditionsComfort  
Time TempWeatherWind HumidityBarometerVisibility
10:53 PM
Sep 16
59 °FOvercast.No wind75%30.01 "Hg10 mi
9:53 PM59 °FClear.3 mph72%30.01 "Hg10 mi
8:53 PM61 °FClear.5 mph67%29.99 "Hg10 mi
7:53 PM63 °FPassing clouds.3 mph65%29.98 "Hg10 mi
6:53 PM67 °FScattered clouds.6 mph57%29.97 "Hg10 mi
5:53 PM70 °FPartly sunny.5 mph49%29.96 "Hg10 mi
4:53 PM70 °FOvercast.6 mph55%29.95 "Hg10 mi
3:53 PM69 °FMostly cloudy.6 mph57%29.95 "Hg10 mi
2:53 PM73 °FPartly sunny.7 mph46%29.94 "Hg10 mi
1:53 PM69 °FMostly cloudy.5 mph61%29.96 "Hg10 mi
12:53 PM69 °FBroken clouds.8 mph61%29.96 "Hg10 mi
11:53 AM66 °FOvercast.7 mph73%29.97 "Hg10 mi
10:53 AM63 °FOvercast.8 mph81%29.99 "Hg10 mi
10:01 AM60 °FLow clouds.5 mph90%30.01 "Hg9 mi
8:53 AM58 °FFog.7 mph93%29.98 "Hg5 mi
8:00 AM57 °FLow clouds.5 mph93%29.99 "Hg7 mi
6:53 AM57 °FRain. Fog.No wind93%29.98 "Hg4 mi
6:00 AM56 °FMostly cloudy.3 mph90%29.98 "Hg10 mi
4:53 AM55 °FPassing clouds.No wind87%29.99 "Hg10 mi
3:53 AM57 °FPassing clouds.No wind83%30.01 "Hg10 mi
2:53 AM58 °FOvercast.3 mph84%30.03 "Hg10 mi
1:53 AM58 °FPassing clouds.5 mph81%30.04 "Hg10 mi
12:53 AM58 °FClear.6 mph84%30.06 "Hg10 mi
Weather by CustomWeather, © 2014

See weather overviewHow to use our weather pages